(156891) = 2003 EY21

Discovered at Socorro on 2003-03-06 by LINEAR.

Orbit

Orbit type: Main Belt

Note: WebGL enabled browser required.

epoch2023-09-13.0
epoch JD2460200.5
perihelion date2021-09-18.97727
perihelion JD2459476.47727
argument of perihelion (°)36.23506
ascending node (°)132.16055
inclination (°)4.89107
eccentricity0.1417740
perihelion distance (AU)2.0537758
Tisserand w.r.t. Jupiter3.5
ΔV w.r.t. Earth (km/sec)9.1
semimajor axis (AU)2.3930477
mean anomaly (°)192.76537
mean daily motion (°/day)0.26624220
aphelion distance (AU)2.732
period (years)3.7
P-vector [x]-0.97796433
P-vector [y]0.16583249
P-vector [z]0.12682803
Q-vector [x]-0.19897569
Q-vector [y]-0.92427571
Q-vector [z]-0.32576538
absolute magnitude16.96
phase slope0.15
uncertainty0
referenceMPO 777972
observations used420
oppositions14
arc length (days)8037
first opposition used2001
last opposition used2023
residual rms (arc-secs)0.72
perturbers coarse indicatorM-v
perturbers precise indicator003Ek
first observation date used2001-10-14.0
last observation date used2023-10-16.0
computer nameMPCLINUX
JD of orbit computation2456819.416925
perihelion JD uncertainty (days)3.7174E-05
argument of perihelion uncertainty (°)4.6956E-05
ascending node uncertainty (°)4.5646E-05
inclination uncertainty (°)3.5523E-06
eccentricity uncertainty 5.4666E-08
perihelion distance uncertainty (AU)1.3222E-07
Minimum Orbit Intersection Distances (in AU)
for orbit epoch: 2460200.5, reference: E2023-U42
Mercury1.6628
Venus1.33438
Earth1.06172
Mars0.39099
Jupiter2.23769
Saturn6.63091
Uranus16.3929
Neptune27.1589

Observations

428 total observations over interval: 2001 10 14.375820 – 2023 10 16.238507
These data are available for download (format description).

Date (UT) J2000 RA J2000 Dec Magn Location Ref
2001 10 14.375820 01 24 58.895 +01 08 23.36 20.55 V 645 – Apache Point-Sloan Digital Sky Survey MPS 136999
2001 10 14.379292 01 24 58.698 +01 08 22.02 21.50   645 – Apache Point-Sloan Digital Sky Survey MPS 136999
2001 11 12.204460 01 01 51.917 -00 58 28.91 21.29 V 645 – Apache Point-Sloan Digital Sky Survey MPS 136999
2001 11 12.207932 01 01 51.794 -00 58 29.41 22.13   645 – Apache Point-Sloan Digital Sky Survey MPS 136999
2003 02 01.40688 11 20 52.32 +07 18 29.6 19.5   704 – Lincoln Laboratory ETS, New Mexico MPS 135341
2003 02 01.42218 11 20 52.10 +07 18 36.4 19.9   704 – Lincoln Laboratory ETS, New Mexico MPS 135341
2003 02 01.43736 11 20 51.87 +07 18 39.9 19.4   704 – Lincoln Laboratory ETS, New Mexico MPS 135341
2003 02 01.45270 11 20 51.63 +07 18 44.6 19.8   704 – Lincoln Laboratory ETS, New Mexico MPS 135341
2003 02 22.40238 11 10 23.13 +09 54 42.5 19.6   644 – Palomar Mountain/NEAT MPS 135341
2003 02 22.42369 11 10 22.13 +09 54 53.2 19.3   644 – Palomar Mountain/NEAT MPS 135341
2003 02 22.44501 11 10 21.11 +09 55 04.4 19.4   644 – Palomar Mountain/NEAT MPS 135341
2003 02 28.32703 11 05 42.42 +10 46 35.3 18.6   704 – Lincoln Laboratory ETS, New Mexico MPS 78317
2003 02 28.34020 11 05 41.76 +10 46 41.2 19.0   704 – Lincoln Laboratory ETS, New Mexico MPS 78317
2003 02 28.35385 11 05 41.07 +10 46 49.5 18.8   704 – Lincoln Laboratory ETS, New Mexico MPS 78317
2003 02 28.36690 11 05 40.40 +10 46 56.1 18.4   704 – Lincoln Laboratory ETS, New Mexico MPS 78317
2003 03 06.16292 11 00 49.04 +11 36 45.2 18.2 R 699 – Lowell Observatory-LONEOS MPS 76222
2003 03 06.17791 11 00 48.21 +11 36 52.7   699 – Lowell Observatory-LONEOS MPS 76222
2003 03 06.19293 11 00 47.47 +11 37 02.6   699 – Lowell Observatory-LONEOS MPS 76222
2003 03 06.20795 11 00 46.70 +11 37 08.6   699 – Lowell Observatory-LONEOS MPS 76222
2003 03 06.30626 11 00 41.35 +11 37 58.4 18.7   704 – Lincoln Laboratory ETS, New Mexico MPS 74449
2003 03 06.31972 11 00 40.65 +11 38 05.2 18.7   704 – Lincoln Laboratory ETS, New Mexico MPS 74449
2003 03 06.33307 11 00 39.94 +11 38 11.9 18.9   704 – Lincoln Laboratory ETS, New Mexico MPS 74449
2003 03 06.34666 11 00 39.17 +11 38 18.4 18.7   704 – Lincoln Laboratory ETS, New Mexico MPS 74449
2003 03 06.36018 11 00 38.53 +11 38 25.3 18.9   704 – Lincoln Laboratory ETS, New Mexico MPS 74449
2003 03 07.18437 10 59 57.19 +11 45 16.4 18.4 R 699 – Lowell Observatory-LONEOS MPS 74449
2003 03 07.20038 10 59 56.37 +11 45 24.2   699 – Lowell Observatory-LONEOS MPS 74449
2003 03 07.21634 10 59 55.49 +11 45 31.9   699 – Lowell Observatory-LONEOS MPS 74449
2003 03 07.23237 10 59 54.64 +11 45 39.8   699 – Lowell Observatory-LONEOS MPS 74449
2003 03 25.26306 10 46 30.92 +13 46 53.9 19.0 R 699 – Lowell Observatory-LONEOS MPS 78317
2003 03 25.27799 10 46 30.40 +13 46 57.9   699 – Lowell Observatory-LONEOS MPS 78317
2003 03 25.29295 10 46 29.85 +13 47 03.7   699 – Lowell Observatory-LONEOS MPS 78317
2003 03 25.30790 10 46 29.27 +13 47 07.4   699 – Lowell Observatory-LONEOS MPS 78317
2003 03 30.24283 10 43 59.44 +14 07 39.7 19.7   704 – Lincoln Laboratory ETS, New Mexico MPS 78317
2003 03 30.25530 10 43 58.99 +14 07 42.9 19.7   704 – Lincoln Laboratory ETS, New Mexico MPS 78317
2003 03 30.255680 10 43 58.950 +14 07 42.56 19.86 V 645 – Apache Point-Sloan Digital Sky Survey MPS 210081
2003 03 30.259152 10 43 58.850 +14 07 43.33 20.87   645 – Apache Point-Sloan Digital Sky Survey MPS 210081
2003 03 30.26750 10 43 58.71 +14 07 45.9 19.7   704 – Lincoln Laboratory ETS, New Mexico MPS 78317
2003 03 30.28005 10 43 58.25 +14 07 48.8 19.2   704 – Lincoln Laboratory ETS, New Mexico MPS 78317
2005 10 25.37830 03 44 42.84 +11 53 57.2 20.5 V 691 – Steward Observatory, Kitt Peak-Spacewatch MPS 146040
2005 10 25.39564 03 44 42.02 +11 53 53.0 20.3 V 691 – Steward Observatory, Kitt Peak-Spacewatch MPS 146040
2005 10 25.41290 03 44 41.23 +11 53 48.7 20.4 V 691 – Steward Observatory, Kitt Peak-Spacewatch MPS 146040
2005 10 29.33131 03 41 36.53 +11 37 52.7 20.4 V 691 – Steward Observatory, Kitt Peak-Spacewatch MPS 147451
2005 10 29.34865 03 41 35.64 +11 37 48.4 20.2 V 691 – Steward Observatory, Kitt Peak-Spacewatch MPS 147451
2005 10 29.36599 03 41 34.74 +11 37 44.0 20.2 V 691 – Steward Observatory, Kitt Peak-Spacewatch MPS 147451
2005 11 06.22124 03 34 30.28 +11 05 37.5 20.2 V 691 – Steward Observatory, Kitt Peak-Spacewatch MPS 149491
2005 11 06.24191 03 34 29.11 +11 05 32.4 20.4 V 691 – Steward Observatory, Kitt Peak-Spacewatch MPS 149491
2005 11 06.25922 03 34 28.08 +11 05 28.1 20.3 V 691 – Steward Observatory, Kitt Peak-Spacewatch MPS 149491
2007 03 31.46125 15 07 37.39 -09 02 20.0 20.2 R 644 – Palomar Mountain/NEAT MPS 205954
2007 03 31.48040 15 07 37.04 -09 02 14.1 19.9 R 644 – Palomar Mountain/NEAT MPS 205954
2007 03 31.49957 15 07 36.65 -09 02 08.6 19.9 R 644 – Palomar Mountain/NEAT MPS 205954
2007 04 16.35897 14 59 03.84 -07 41 41.8 19.3 V 703 – Catalina Sky Survey MPS 206861
2007 04 16.36337 14 59 03.55 -07 41 39.8 19.0 V 703 – Catalina Sky Survey MPS 206861
2007 04 16.36778 14 59 03.37 -07 41 38.8 19.3 V 703 – Catalina Sky Survey MPS 206861
2007 04 16.37216 14 59 03.04 -07 41 38.1 19.6 V 703 – Catalina Sky Survey MPS 206861
2007 04 20.31351 14 55 56.88 -07 20 56.1 19.5   704 – Lincoln Laboratory ETS, New Mexico MPS 208034
2007 04 20.32266 14 55 56.38 -07 20 52.8 19.5   704 – Lincoln Laboratory ETS, New Mexico MPS 208034
2007 04 20.33184 14 55 55.98 -07 20 49.5 19.9   704 – Lincoln Laboratory ETS, New Mexico MPS 208034
2007 04 20.34145 14 55 55.49 -07 20 46.7 19.2   704 – Lincoln Laboratory ETS, New Mexico MPS 208034
2007 04 25.26567 14 51 41.46 -06 55 48.5 19.8 V 691 – Steward Observatory, Kitt Peak-Spacewatch MPS 208034
2007 04 25.28333 14 51 40.48 -06 55 43.4 19.9 V 691 – Steward Observatory, Kitt Peak-Spacewatch MPS 208034
2007 04 25.30100 14 51 39.48 -06 55 38.3 19.9 V 691 – Steward Observatory, Kitt Peak-Spacewatch MPS 208034
2007 05 17.29252 14 32 09.45 -05 36 53.9 20.0 V 703 – Catalina Sky Survey MPS 210081
2007 05 17.29735 14 32 09.20 -05 36 52.4 20.0 V 703 – Catalina Sky Survey MPS 210081
2007 05 17.30221 14 32 09.02 -05 36 52.0 20.0 V 703 – Catalina Sky Survey MPS 210081
2007 05 17.30702 14 32 08.80 -05 36 48.9 20.0 V 703 – Catalina Sky Survey MPS 210081
2007 05 17.31318 14 32 08.44 -05 36 50.9 19.3 V 703 – Catalina Sky Survey MPS 210081
2007 05 17.31961 14 32 08.26 -05 36 49.7 19.5 V 703 – Catalina Sky Survey MPS 210081
2007 05 17.32604 14 32 07.94 -05 36 49.3 19.7 V 703 – Catalina Sky Survey MPS 210081
2007 05 17.33245 14 32 07.72 -05 36 47.4 19.3 V 703 – Catalina Sky Survey MPS 210081
2010 01 16.13498 05 38 48.15 +18 43 42.7   691 – Steward Observatory, Kitt Peak-Spacewatch MPS 311032
2010 01 16.14836 05 38 47.53 +18 43 45.1   691 – Steward Observatory, Kitt Peak-Spacewatch MPS 311032
2010 01 16.16173 05 38 46.93 +18 43 47.5   691 – Steward Observatory, Kitt Peak-Spacewatch MPS 311032
2012 10 05.367298 00 45 21.704 -02 17 46.02 20.2 r F51 – Pan-STARRS 1, Haleakala MPS 434696
2012 10 05.378651 00 45 21.068 -02 17 50.55 20.2 r F51 – Pan-STARRS 1, Haleakala MPS 434696
2012 10 05.462569 00 45 16.360 -02 18 23.43 20.1 i F51 – Pan-STARRS 1, Haleakala MPS 434696
2012 10 05.474646 00 45 15.680 -02 18 28.22 20.2 i F51 – Pan-STARRS 1, Haleakala MPS 434696
2012 10 06.314524 00 44 30.582 -02 23 55.50 20.9 g F51 – Pan-STARRS 1, Haleakala MPS 437188
2012 10 06.333876 00 44 29.509 -02 24 02.74 21.0 g F51 – Pan-STARRS 1, Haleakala MPS 437188
2012 10 11.32008 00 40 01.99 -02 55 07.8 20.5 V G96 – Mt. Lemmon Survey MPS 437188
2012 10 11.32716 00 40 01.59 -02 55 10.4 20.4 V G96 – Mt. Lemmon Survey MPS 437188
2012 10 11.33424 00 40 01.23 -02 55 12.7 20.5 V G96 – Mt. Lemmon Survey MPS 437188
2012 10 11.34135 00 40 00.84 -02 55 15.2 20.3 V G96 – Mt. Lemmon Survey MPS 437188
2012 10 15.336779 00 36 33.239 -03 18 05.64 20.5 w F51 – Pan-STARRS 1, Haleakala MPS 437188
2012 10 15.355954 00 36 32.221 -03 18 11.95 20.6 w F51 – Pan-STARRS 1, Haleakala MPS 437188
2012 10 15.370479 00 36 31.452 -03 18 16.62 20.7 w F51 – Pan-STARRS 1, Haleakala MPS 437188
2012 10 21.342678 00 31 40.579 -03 48 09.89 20.3 i F51 – Pan-STARRS 1, Haleakala MPS 439031
